Weather History for Butler, PA

Change the Weather History Date:

Friday, October 25, 2013

  Actual Average Record
Temperature  
Mean Temperature 38 °F -  
Max Temperature 46 °F 56 °F 79 °F (1975)
Min Temperature 30 °F 38 °F 18 °F (1969)
Degree Days  
Heating Degree Days 27    
Moisture  
Dew Point 28 °F    
Average Humidity 70    
Maximum Humidity 93    
Minimum Humidity 46    
Precipitation  
Precipitation 0.00 in - - ()
Sea Level Pressure  
Sea Level Pressure 30.25 in    
Wind  
Wind Speed 7 mph (WSW)    
Max Wind Speed 14 mph    
Max Gust Speed 21 mph    
Visibility 10 miles    
Events      
Averages and records for this station are not official NWS values.
T = Trace of Precipitation, MM = Missing Value Source: NWS Daily Summary

Daily Weather History Graph

Daily Weather History Graph

Search for Another Location

Airport:

Trip Planner

Search our weather history database for the weather conditions in past years. The results will help you decide how hot, cold, wet, or windy it might be!

Date:

Astronomy

Oct. 25, 2013 Rise Set
Actual Time 7:42 AM EDT 6:24 PM EDT
Civil Twilight 7:14 AM EDT 6:52 PM EDT
Nautical Twilight 6:42 AM EDT 7:24 PM EDT
Astronomical Twilight 6:10 AM EDT 7:56 PM EDT
Moon 11:42 PM EDT (10/25) 1:22 PM EDT (10/25)
Length of Visible Light 11h 38m
Length of Day
10h 42m
Waning Gibbous, 62% of the Moon is Illuminated
Oct 25
Waning Gibbous
Oct 26
Last Quarter
Nov 3
New
Nov 10
First Quarter
Nov 17
Full

Hourly Weather History & Observations

Time (EDT) Temp. Windchill Dew Point Humidity Pressure Visibility Wind Dir Wind Speed Gust Speed Precip Events Conditions
12:15 AM 30.2 °F 25.4 °F 26.6 °F 86% 30.14 in 10.0 mi SW 4.6 mph - N/A   Partly Cloudy
12:35 AM 30.2 °F 24.3 °F 26.6 °F 86% 30.14 in 10.0 mi SW 5.8 mph - N/A   Partly Cloudy
12:55 AM 30.2 °F 23.4 °F 26.6 °F 86% 30.14 in 10.0 mi WSW 6.9 mph - N/A   Partly Cloudy
1:15 AM 30.2 °F 24.3 °F 28.4 °F 93% 30.14 in 10.0 mi SW 5.8 mph - N/A   Mostly Cloudy
1:35 AM 32.0 °F 28.7 °F 28.4 °F 87% 30.15 in 10.0 mi WSW 3.5 mph - N/A   Overcast
1:55 AM 32.0 °F 26.4 °F 28.4 °F 87% 30.15 in 10.0 mi WSW 5.8 mph - N/A   Mostly Cloudy
2:15 AM 32.0 °F 25.6 °F 28.4 °F 87% 30.16 in 10.0 mi WSW 6.9 mph - N/A   Overcast
2:35 AM 33.8 °F 27.0 °F 28.4 °F 81% 30.16 in 10.0 mi WSW 8.1 mph - N/A   Overcast
2:55 AM 33.8 °F 28.6 °F 28.4 °F 81% 30.16 in 10.0 mi WSW 5.8 mph - N/A   Mostly Cloudy
3:15 AM 33.8 °F 27.7 °F 28.4 °F 81% 30.16 in 10.0 mi WSW 6.9 mph - N/A   Overcast
3:35 AM 33.8 °F 27.7 °F 28.4 °F 81% 30.17 in 10.0 mi WSW 6.9 mph - N/A   Overcast
3:55 AM 33.8 °F 27.0 °F 28.4 °F 81% 30.16 in 10.0 mi WSW 8.1 mph - N/A   Overcast
4:15 AM 33.8 °F 28.6 °F 28.4 °F 81% 30.17 in 10.0 mi WSW 5.8 mph - N/A   Overcast
4:35 AM 33.8 °F 27.7 °F 28.4 °F 81% 30.17 in 10.0 mi WSW 6.9 mph - N/A   Overcast
4:55 AM 33.8 °F 28.6 °F 30.2 °F 87% 30.18 in 8.0 mi WSW 5.8 mph - N/A   Overcast
5:15 AM 33.8 °F 28.6 °F 30.2 °F 87% 30.19 in 7.0 mi WSW 5.8 mph - N/A   Overcast
5:35 AM 33.8 °F 27.7 °F 30.2 °F 87% 30.20 in 7.0 mi WSW 6.9 mph - N/A   Overcast
5:55 AM 33.8 °F 27.7 °F 30.2 °F 87% 30.20 in 8.0 mi WSW 6.9 mph - N/A   Overcast
6:15 AM 33.8 °F 28.6 °F 30.2 °F 87% 30.22 in 8.0 mi West 5.8 mph - N/A   Overcast
6:35 AM 33.8 °F 30.8 °F 30.2 °F 87% 30.22 in 8.0 mi SW 3.5 mph - N/A   Overcast
6:55 AM 33.8 °F 30.8 °F 30.2 °F 87% 30.22 in 8.0 mi WSW 3.5 mph - N/A   Overcast
7:15 AM 33.8 °F 30.8 °F 30.2 °F 87% 30.23 in 7.0 mi WSW 3.5 mph - N/A   Overcast
7:35 AM 33.8 °F 30.8 °F 30.2 °F 87% 30.24 in 7.0 mi WSW 3.5 mph - N/A   Overcast
7:55 AM 35.6 °F 31.7 °F 30.2 °F 81% 30.25 in 6.0 mi WSW 4.6 mph - N/A   Overcast
8:15 AM 35.6 °F 29.9 °F 30.2 °F 81% 30.26 in 7.0 mi WSW 6.9 mph - N/A   Overcast
8:35 AM 35.6 °F 29.9 °F 30.2 °F 81% 30.27 in 8.0 mi WSW 6.9 mph - N/A   Overcast
8:55 AM 35.6 °F 28.6 °F 32.0 °F 87% 30.28 in 8.0 mi West 9.2 mph - N/A   Overcast
9:15 AM 35.6 °F 28.6 °F 32.0 °F 87% 30.29 in 9.0 mi West 9.2 mph - N/A   Overcast
9:35 AM 35.6 °F 27.1 °F 32.0 °F 87% 30.30 in 10.0 mi WSW 12.7 mph - N/A   Overcast
9:55 AM 37.4 °F 30.8 °F 32.0 °F 81% 30.30 in 10.0 mi West 9.2 mph - N/A   Overcast
10:15 AM 37.4 °F 31.4 °F 32.0 °F 81% 30.30 in 10.0 mi West 8.1 mph - N/A   Overcast
10:35 AM 39.2 °F 32.5 °F 30.2 °F 70% 30.31 in 10.0 mi West 10.4 mph 17.3 mph N/A   Overcast
10:55 AM 39.2 °F 33.6 °F 32.0 °F 75% 30.31 in 10.0 mi West 8.1 mph 16.1 mph N/A   Overcast
11:15 AM 41.0 °F 35.2 °F 32.0 °F 70% 30.32 in 10.0 mi West 9.2 mph - N/A   Overcast
11:35 AM 41.0 °F 33.9 °F 32.0 °F 70% 30.33 in 10.0 mi WSW 12.7 mph 16.1 mph N/A   Overcast
11:55 AM 42.8 °F 36.2 °F 32.0 °F 66% 30.32 in 10.0 mi WSW 12.7 mph 18.4 mph N/A   Mostly Cloudy
12:15 PM 42.8 °F 38.6 °F 30.2 °F 61% 30.32 in 10.0 mi West 6.9 mph - N/A   Mostly Cloudy
12:35 PM 42.8 °F 39.3 °F 30.2 °F 61% 30.31 in 10.0 mi West 5.8 mph - N/A   Mostly Cloudy
12:55 PM 46.4 °F 41.1 °F 32.0 °F 57% 30.30 in 10.0 mi SW 11.5 mph 20.7 mph N/A   Mostly Cloudy
1:15 PM 44.6 °F 38.4 °F 30.2 °F 57% 30.30 in 10.0 mi West 12.7 mph 18.4 mph N/A   Overcast
1:35 PM 44.6 °F 42.2 °F 28.4 °F 53% 30.29 in 10.0 mi NW 4.6 mph - N/A   Mostly Cloudy
1:55 PM 46.4 °F 41.9 °F 28.4 °F 50% 30.28 in 10.0 mi West 9.2 mph - N/A   Mostly Cloudy
2:15 PM 44.6 °F 39.2 °F 26.6 °F 49% 30.28 in 10.0 mi West 10.4 mph - N/A   Mostly Cloudy
2:35 PM 44.6 °F 38.8 °F 26.6 °F 49% 30.27 in 10.0 mi West 11.5 mph - N/A   Mostly Cloudy
2:55 PM 46.4 °F 40.4 °F 26.6 °F 46% 30.28 in 10.0 mi WSW 13.8 mph 18.4 mph N/A   Mostly Cloudy
3:15 PM 44.6 °F 38.8 °F 26.6 °F 49% 30.27 in 10.0 mi West 11.5 mph 17.3 mph N/A   Overcast
3:35 PM 44.6 °F 40.7 °F 26.6 °F 49% 30.27 in 10.0 mi WNW 6.9 mph - N/A   Overcast
3:55 PM 44.6 °F 38.8 °F 26.6 °F 49% 30.27 in 10.0 mi West 11.5 mph 18.4 mph N/A   Mostly Cloudy
4:15 PM 46.4 °F 40.7 °F 26.6 °F 46% 30.28 in 10.0 mi WSW 12.7 mph 18.4 mph N/A   Mostly Cloudy
4:35 PM 44.6 °F 38.8 °F 26.6 °F 49% 30.28 in 10.0 mi West 11.5 mph - N/A   Mostly Cloudy
4:55 PM 44.6 °F 38.8 °F 26.6 °F 49% 30.28 in 10.0 mi WSW 11.5 mph - N/A   Mostly Cloudy
5:15 PM 44.6 °F 39.2 °F 24.8 °F 46% 30.28 in 10.0 mi WSW 10.4 mph 17.3 mph N/A   Partly Cloudy
5:35 PM 44.6 °F 39.2 °F 26.6 °F 49% 30.28 in 10.0 mi WSW 10.4 mph - N/A   Mostly Cloudy
5:55 PM 44.6 °F 40.2 °F 24.8 °F 46% 30.28 in 10.0 mi West 8.1 mph - N/A   Overcast
6:15 PM 44.6 °F 39.7 °F 24.8 °F 46% 30.28 in 10.0 mi WSW 9.2 mph - N/A   Overcast
6:35 PM 42.8 °F 38.6 °F 26.6 °F 53% 30.27 in 10.0 mi West 6.9 mph - N/A   Overcast
6:55 PM 42.8 °F 40.1 °F 26.6 °F 53% 30.27 in 10.0 mi WSW 4.6 mph - N/A   Overcast
7:15 PM 41.0 °F 38.0 °F 26.6 °F 57% 30.28 in 10.0 mi SW 4.6 mph - N/A   Mostly Cloudy
7:35 PM 41.0 °F 37.1 °F 26.6 °F 57% 30.28 in 10.0 mi SW 5.8 mph - N/A   Overcast
7:55 PM 39.2 °F 35.9 °F 26.6 °F 61% 30.28 in 10.0 mi SW 4.6 mph - N/A   Scattered Clouds
8:15 PM 39.2 °F 37.0 °F 26.6 °F 61% 30.28 in 10.0 mi SSW 3.5 mph - N/A   Clear
8:35 PM 37.4 °F 33.8 °F 24.8 °F 60% 30.28 in 10.0 mi SSW 4.6 mph - N/A   Clear
8:55 PM 35.6 °F 32.8 °F 24.8 °F 65% 30.27 in 10.0 mi SSW 3.5 mph - N/A   Partly Cloudy
9:15 PM 35.6 °F 32.8 °F 26.6 °F 70% 30.27 in 10.0 mi SSW 3.5 mph - N/A   Partly Cloudy
9:35 PM 35.6 °F 32.8 °F 26.6 °F 70% 30.27 in 10.0 mi SSW 3.5 mph - N/A   Mostly Cloudy
9:55 PM 37.4 °F 34.9 °F 26.6 °F 65% 30.26 in 10.0 mi SW 3.5 mph - N/A   Overcast
10:15 PM 35.6 °F 31.7 °F 26.6 °F 70% 30.26 in 10.0 mi SW 4.6 mph - N/A   Scattered Clouds
10:35 PM 35.6 °F 30.7 °F 26.6 °F 70% 30.26 in 10.0 mi SW 5.8 mph - N/A   Clear
10:55 PM 35.6 °F 32.8 °F 26.6 °F 70% 30.26 in 10.0 mi SW 3.5 mph - N/A   Clear
11:15 PM 35.6 °F 32.8 °F 26.6 °F 70% 30.25 in 10.0 mi SSW 3.5 mph - N/A   Clear
11:35 PM 35.6 °F 32.8 °F 26.6 °F 70% 30.25 in 10.0 mi South 3.5 mph - N/A   Clear
11:55 PM 33.8 °F 29.6 °F 26.6 °F 75% 30.24 in 10.0 mi South 4.6 mph - N/A   Clear